Location: Olomouc
(49.5830°N, 17.2500°E)
Time: 19:13:36
(UTC+02:00)

ISS - Pass Details

Date: 07 May 2021
Orbit: 417 x 422 km, 51.6° (Epoch: 14 June)

Event Time Altitude Azimuth Distance (km) Brightness Sun altitude
Exits shadow 03:33:27 16° 272° (W) 1,179 -1.8 -14.1°
Maximum altitude 03:35:59 63° 352° (N) 475 -3.4 -13.9°
Drops below altitude 10° 03:39:22 10° 75° (ENE) 1,511 0.0 -13.5°
Sets 03:41:29 0° 78° (ENE) 2,377 1.0 -13.3°
